Location: *
(51.0333°S, 178.4667°E)
Time: 05:32:13
(UTC+00:00)

IRIDIUM 104 - Pass Details

Date: 15 November 2019
Orbit: 776 x 779 km, 86.4° (Epoch: 14 December)

Event Time Altitude Azimuth Distance (km) Brightness Sun altitude
Rises 08:48:00 0° 184° (S) 3,306 8.5 -9.8°
Reaches altitude 10° 08:50:23 10° 181° (S) 2,371 7.6 -10.1°
Maximum altitude 08:55:43 75° 96° (E) 824 4.4 -10.7°
Enters shadow 09:00:57 10° 10° (N) 2,333 6.3 -11.2°
